Time,TemperatureF,DewpointF,PressureIn,WindDirection,WindDirectionDegrees,WindSpeedMPH,WindSpeedGustMPH,Humidity,HourlyPrecipIn,Conditions,Clouds,dailyrainin,SoftwareType,DateUTC
2013-06-07 00:01:00,69.4,68.8,29.83,ESE,118,0.0,2.0,98,0.00,,,1.12,VWS V14.01,2013-06-07 04:01:00,
2013-06-07 00:02:00,69.4,68.8,29.83,SE,126,1.0,2.0,98,0.00,,,1.12,VWS V14.01,2013-06-07 04:02:00,
2013-06-07 00:07:00,69.5,68.9,29.83,SE,125,0.0,1.0,98,0.00,,,0.00,VWS V14.01,2013-06-07 04:07:00,
2013-06-07 00:12:00,69.5,68.9,29.83,SE,125,0.0,1.0,98,0.00,,,0.00,VWS V14.01,2013-06-07 04:12:00,
2013-06-07 00:17:00,69.4,68.8,29.83,SE,125,0.0,1.0,98,0.00,,,0.00,VWS V14.01,2013-06-07 04:17:00,
2013-06-07 00:22:00,69.4,68.8,29.83,SE,125,0.0,1.0,98,0.00,,,0.00,VWS V14.01,2013-06-07 04:22:00,
2013-06-07 00:27:00,69.4,68.8,29.83,ESE,119,0.0,1.0,98,0.00,,,0.00,VWS V14.01,2013-06-07 04:27:00,
2013-06-07 00:32:00,69.4,68.8,29.83,ESE,121,0.0,1.0,98,0.00,,,0.00,VWS V14.01,2013-06-07 04:32:00,
2013-06-07 00:37:00,69.4,68.8,29.83,SSE,156,0.0,1.0,98,0.00,,,0.00,VWS V14.01,2013-06-07 04:37:00,
2013-06-07 00:42:00,69.5,68.9,29.83,SSE,157,0.0,1.0,98,0.00,,,0.00,VWS V14.01,2013-06-07 04:42:00,
2013-06-07 00:47:00,69.5,68.9,29.82,SSE,155,0.0,1.0,98,0.00,,,0.00,VWS V14.01,2013-06-07 04:47:00,
2013-06-07 00:52:00,69.5,68.9,29.82,SSE,155,0.0,1.0,98,0.01,,,0.01,VWS V14.01,2013-06-07 04:52:00,
2013-06-07 00:57:00,69.5,68.9,29.82,SE,140,1.0,1.0,98,0.01,,,0.01,VWS V14.01,2013-06-07 04:57:00,
2013-06-07 01:02:00,69.5,68.9,29.82,SSE,150,2.0,2.0,98,0.01,,,0.01,VWS V14.01,2013-06-07 05:02:00,
2013-06-07 01:07:00,69.6,69.0,29.82,SSE,155,0.0,0.0,98,0.02,,,0.02,VWS V14.01,2013-06-07 05:07:00,
2013-06-07 01:12:00,69.6,69.0,29.82,SSE,155,0.0,0.0,98,0.02,,,0.02,VWS V14.01,2013-06-07 05:12:00,
2013-06-07 01:17:00,69.7,69.1,29.81,East,88,1.0,2.0,98,0.03,,,0.03,VWS V14.01,2013-06-07 05:17:00,
2013-06-07 01:22:00,69.7,69.1,29.81,East,84,0.0,2.0,98,0.04,,,0.04,VWS V14.01,2013-06-07 05:22:00,
2013-06-07 01:27:00,69.8,69.2,29.81,SE,140,1.0,2.0,98,0.04,,,0.04,VWS V14.01,2013-06-07 05:27:00,
2013-06-07 01:32:00,69.9,69.3,29.80,South,191,0.0,2.0,98,0.05,,,0.05,VWS V14.01,2013-06-07 05:32:00,
2013-06-07 01:37:00,69.9,69.3,29.80,SSE,161,0.0,2.0,98,0.05,,,0.05,VWS V14.01,2013-06-07 05:37:00,
2013-06-07 01:42:00,70.0,69.4,29.80,ENE,65,4.0,4.0,98,0.05,,,0.05,VWS V14.01,2013-06-07 05:42:00,
2013-06-07 01:47:00,70.1,69.5,29.80,East,99,2.0,4.0,98,0.06,,,0.06,VWS V14.01,2013-06-07 05:47:00,
2013-06-07 01:52:00,70.2,69.6,29.79,SSW,206,1.0,5.0,98,0.06,,,0.06,VWS V14.01,2013-06-07 05:52:00,
2013-06-07 01:57:00,70.2,69.6,29.79,ESE,118,0.0,5.0,98,0.06,,,0.06,VWS V14.01,2013-06-07 05:57:00,
2013-06-07 02:02:00,70.2,69.6,29.78,SSE,152,0.0,5.0,98,0.06,,,0.06,VWS V14.01,2013-06-07 06:02:00,
2013-06-07 02:07:00,70.2,69.6,29.78,SE,133,1.0,3.0,98,0.05,,,0.07,VWS V14.01,2013-06-07 06:07:00,
2013-06-07 02:12:00,70.2,69.6,29.78,ESE,106,0.0,3.0,98,0.05,,,0.07,VWS V14.01,2013-06-07 06:12:00,
2013-06-07 02:17:00,70.2,69.6,29.78,ESE,107,1.0,5.0,98,0.06,,,0.08,VWS V14.01,2013-06-07 06:17:00,
2013-06-07 02:22:00,70.2,69.6,29.77,SSE,159,1.0,5.0,98,0.06,,,0.08,VWS V14.01,2013-06-07 06:22:00,
2013-06-07 02:27:00,70.3,69.7,29.77,ENE,76,1.0,5.0,98,0.07,,,0.09,VWS V14.01,2013-06-07 06:27:00,
2013-06-07 02:32:00,70.2,69.6,29.77,East,87,2.0,7.0,98,0.07,,,0.09,VWS V14.01,2013-06-07 06:32:00,
2013-06-07 02:37:00,70.2,69.6,29.76,ENE,73,3.0,4.0,98,0.05,,,0.10,VWS V14.01,2013-06-07 06:37:00,
2013-06-07 02:42:00,70.2,69.6,29.76,East,79,1.0,5.0,98,0.06,,,0.11,VWS V14.01,2013-06-07 06:42:00,
2013-06-07 02:47:00,70.1,69.5,29.75,NE,51,2.0,6.0,98,0.07,,,0.12,VWS V14.01,2013-06-07 06:47:00,
2013-06-07 02:52:00,70.1,69.5,29.75,East,82,2.0,6.0,98,0.07,,,0.12,VWS V14.01,2013-06-07 06:52:00,
2013-06-07 02:57:00,70.1,69.5,29.75,South,176,3.0,6.0,98,0.08,,,0.13,VWS V14.01,2013-06-07 06:57:00,
2013-06-07 03:02:00,70.0,69.4,29.74,East,84,3.0,7.0,98,0.08,,,0.13,VWS V14.01,2013-06-07 07:02:00,
2013-06-07 03:07:00,70.0,69.4,29.74,ENE,71,4.0,6.0,98,0.08,,,0.14,VWS V14.01,2013-06-07 07:07:00,
2013-06-07 03:12:00,69.9,69.3,29.74,East,82,3.0,6.0,98,0.10,,,0.16,VWS V14.01,2013-06-07 07:12:00,
2013-06-07 03:17:00,69.9,69.3,29.73,ENE,68,3.0,7.0,98,0.12,,,0.18,VWS V14.01,2013-06-07 07:17:00,
2013-06-07 03:22:00,69.8,69.2,29.72,ENE,65,4.0,7.0,98,0.14,,,0.20,VWS V14.01,2013-06-07 07:22:00,
2013-06-07 03:27:00,69.7,69.1,29.72,ESE,117,3.0,7.0,98,0.15,,,0.21,VWS V14.01,2013-06-07 07:27:00,
2013-06-07 03:32:00,69.6,69.0,29.72,ESE,105,2.0,7.0,98,0.18,,,0.24,VWS V14.01,2013-06-07 07:32:00,
2013-06-07 03:37:00,69.6,69.0,29.71,East,82,5.0,7.0,98,0.19,,,0.28,VWS V14.01,2013-06-07 07:37:00,
2013-06-07 03:42:00,69.5,68.9,29.72,East,92,2.0,7.0,98,0.22,,,0.31,VWS V14.01,2013-06-07 07:42:00,
2013-06-07 03:47:00,69.5,68.9,29.71,NE,40,1.0,7.0,98,0.25,,,0.34,VWS V14.01,2013-06-07 07:47:00,
2013-06-07 03:52:00,69.5,68.9,29.70,NNW,342,2.0,7.0,98,0.28,,,0.37,VWS V14.01,2013-06-07 07:52:00,
2013-06-07 03:57:00,69.5,68.9,29.69,NE,40,1.0,7.0,98,0.30,,,0.39,VWS V14.01,2013-06-07 07:57:00,
2013-06-07 04:02:00,69.4,68.8,29.69,NE,35,1.0,7.0,98,0.32,,,0.41,VWS V14.01,2013-06-07 08:02:00,
2013-06-07 04:07:00,69.3,68.7,29.69,ENE,68,3.0,8.0,98,0.29,,,0.43,VWS V14.01,2013-06-07 08:07:00,
2013-06-07 04:12:00,69.3,68.7,29.68,ENE,62,3.0,8.0,98,0.31,,,0.45,VWS V14.01,2013-06-07 08:12:00,
2013-06-07 04:17:00,69.2,68.6,29.68,NE,56,4.0,8.0,98,0.32,,,0.46,VWS V14.01,2013-06-07 08:17:00,
2013-06-07 04:22:00,69.2,68.6,29.68,ENE,76,4.0,8.0,98,0.33,,,0.47,VWS V14.01,2013-06-07 08:22:00,
2013-06-07 04:27:00,69.2,68.6,29.68,ESE,106,8.0,11.0,98,0.34,,,0.48,VWS V14.01,2013-06-07 08:27:00,
2013-06-07 04:32:00,69.2,68.6,29.67,ENE,74,1.0,11.0,98,0.35,,,0.49,VWS V14.01,2013-06-07 08:32:00,
2013-06-07 04:37:00,69.3,68.7,29.68,NE,55,5.0,9.0,98,0.25,,,0.50,VWS V14.01,2013-06-07 08:37:00,
2013-06-07 04:42:00,69.2,68.6,29.67,East,90,1.0,9.0,98,0.26,,,0.51,VWS V14.01,2013-06-07 08:42:00,
2013-06-07 04:47:00,69.2,68.6,29.67,ENE,65,4.0,9.0,98,0.27,,,0.52,VWS V14.01,2013-06-07 08:47:00,
2013-06-07 04:52:00,69.2,68.6,29.67,East,99,1.0,9.0,98,0.31,,,0.56,VWS V14.01,2013-06-07 08:52:00,
2013-06-07 04:57:00,69.2,68.6,29.67,ENE,74,3.0,9.0,98,0.33,,,0.58,VWS V14.01,2013-06-07 08:57:00,
2013-06-07 05:02:00,69.2,68.6,29.66,NE,46,4.0,9.0,98,0.35,,,0.60,VWS V14.01,2013-06-07 09:02:00,
2013-06-07 05:07:00,69.1,68.5,29.66,ENE,62,2.0,7.0,98,0.18,,,0.60,VWS V14.01,2013-06-07 09:07:00,
2013-06-07 05:12:00,69.1,68.5,29.66,East,79,1.0,7.0,98,0.19,,,0.61,VWS V14.01,2013-06-07 09:12:00,
2013-06-07 05:17:00,69.1,68.5,29.67,ESE,111,1.0,7.0,98,0.19,,,0.61,VWS V14.01,2013-06-07 09:17:00,
2013-06-07 05:22:00,69.1,68.5,29.66,ESE,109,1.0,7.0,98,0.20,,,0.62,VWS V14.01,2013-06-07 09:22:00,
2013-06-07 05:27:00,69.0,68.4,29.66,ENE,69,1.0,7.0,98,0.22,,,0.64,VWS V14.01,2013-06-07 09:27:00,
2013-06-07 05:32:00,69.0,68.4,29.66,East,82,2.0,7.0,98,0.23,,,0.65,VWS V14.01,2013-06-07 09:32:00,
2013-06-07 05:37:00,69.0,68.4,29.65,East,79,6.0,9.0,98,0.17,,,0.66,VWS V14.01,2013-06-07 09:37:00,
2013-06-07 05:42:00,69.0,68.4,29.66,SE,130,1.0,9.0,98,0.17,,,0.66,VWS V14.01,2013-06-07 09:42:00,
2013-06-07 05:47:00,69.0,68.4,29.66,SE,142,0.0,9.0,98,0.18,,,0.67,VWS V14.01,2013-06-07 09:47:00,
2013-06-07 05:52:00,69.0,68.4,29.66,ENE,70,0.0,9.0,98,0.18,,,0.67,VWS V14.01,2013-06-07 09:52:00,
2013-06-07 05:57:00,69.0,68.4,29.66,SE,134,0.0,9.0,98,0.20,,,0.69,VWS V14.01,2013-06-07 09:57:00,
2013-06-07 06:02:00,69.0,68.4,29.66,SSW,195,2.0,9.0,98,0.21,,,0.70,VWS V14.01,2013-06-07 10:02:00,
2013-06-07 06:07:00,69.0,68.4,29.66,East,87,2.0,2.0,98,0.11,,,0.71,VWS V14.01,2013-06-07 10:07:00,
2013-06-07 06:12:00,69.0,68.4,29.66,South,171,1.0,5.0,98,0.13,,,0.73,VWS V14.01,2013-06-07 10:12:00,
2013-06-07 06:17:00,69.0,68.4,29.66,West,264,0.0,5.0,98,0.14,,,0.74,VWS V14.01,2013-06-07 10:17:00,
2013-06-07 06:22:00,69.0,68.4,29.66,East,90,1.0,5.0,98,0.17,,,0.77,VWS V14.01,2013-06-07 10:22:00,
2013-06-07 06:27:00,69.0,68.4,29.65,ENE,63,2.0,5.0,98,0.19,,,0.79,VWS V14.01,2013-06-07 10:27:00,
2013-06-07 06:32:00,69.1,68.5,29.65,South,186,1.0,5.0,98,0.20,,,0.80,VWS V14.01,2013-06-07 10:32:00,
2013-06-07 06:37:00,69.1,68.5,29.65,NE,42,0.0,2.0,98,0.17,,,0.82,VWS V14.01,2013-06-07 10:37:00,
2013-06-07 06:42:00,69.1,68.5,29.65,NE,51,0.0,2.0,98,0.19,,,0.84,VWS V14.01,2013-06-07 10:42:00,
2013-06-07 06:47:00,69.1,68.5,29.66,SSE,148,1.0,2.0,98,0.20,,,0.85,VWS V14.01,2013-06-07 10:47:00,
2013-06-07 06:52:00,69.1,68.5,29.65,ENE,68,2.0,2.0,98,0.20,,,0.85,VWS V14.01,2013-06-07 10:52:00,
2013-06-07 06:57:00,69.1,68.5,29.64,East,87,1.0,4.0,98,0.20,,,0.85,VWS V14.01,2013-06-07 10:57:00,
2013-06-07 07:02:00,69.1,68.5,29.64,ENE,67,0.0,4.0,98,0.20,,,0.85,VWS V14.01,2013-06-07 11:02:00,
2013-06-07 07:07:00,69.2,68.6,29.64,East,82,0.0,1.0,98,0.15,,,0.85,VWS V14.01,2013-06-07 11:07:00,
2013-06-07 07:12:00,69.1,68.5,29.64,East,82,0.0,1.0,98,0.16,,,0.86,VWS V14.01,2013-06-07 11:12:00,
2013-06-07 07:17:00,69.1,68.5,29.63,East,100,1.0,1.0,98,0.17,,,0.87,VWS V14.01,2013-06-07 11:17:00,
2013-06-07 07:22:00,69.1,68.5,29.63,East,96,2.0,2.0,98,0.19,,,0.89,VWS V14.01,2013-06-07 11:22:00,
2013-06-07 07:27:00,69.1,68.5,29.63,East,95,0.0,2.0,98,0.20,,,0.90,VWS V14.01,2013-06-07 11:27:00,
2013-06-07 07:32:00,69.1,68.5,29.63,East,84,0.0,2.0,98,0.21,,,0.91,VWS V14.01,2013-06-07 11:32:00,
2013-06-07 07:37:00,69.2,68.6,29.63,East,90,1.0,3.0,98,0.12,,,0.92,VWS V14.01,2013-06-07 11:37:00,
2013-06-07 07:42:00,69.2,68.6,29.63,East,90,0.0,3.0,98,0.12,,,0.92,VWS V14.01,2013-06-07 11:42:00,
2013-06-07 07:47:00,69.3,68.7,29.63,East,90,3.0,4.0,98,0.12,,,0.92,VWS V14.01,2013-06-07 11:47:00,
2013-06-07 07:52:00,69.4,68.8,29.63,East,82,2.0,4.0,98,0.12,,,0.92,VWS V14.01,2013-06-07 11:52:00,
2013-06-07 07:57:00,69.5,69.2,29.62,ENE,60,3.0,5.0,99,0.12,,,0.92,VWS V14.01,2013-06-07 11:57:00,
2013-06-07 08:02:00,69.6,69.3,29.62,ESE,115,1.0,5.0,99,0.12,,,0.92,VWS V14.01,2013-06-07 12:02:00,
2013-06-07 08:07:00,69.7,69.4,29.62,ESE,118,1.0,5.0,99,0.07,,,0.92,VWS V14.01,2013-06-07 12:07:00,
2013-06-07 08:12:00,69.8,69.5,29.62,SSE,155,0.0,7.0,99,0.07,,,0.92,VWS V14.01,2013-06-07 12:12:00,
2013-06-07 08:17:00,69.9,69.6,29.62,ENE,74,4.0,7.0,99,0.07,,,0.92,VWS V14.01,2013-06-07 12:17:00,
2013-06-07 08:22:00,70.0,69.7,29.62,SE,145,0.0,7.0,99,0.07,,,0.92,VWS V14.01,2013-06-07 12:22:00,
2013-06-07 08:27:00,70.1,69.8,29.62,ENE,59,1.0,7.0,99,0.07,,,0.92,VWS V14.01,2013-06-07 12:27:00,
2013-06-07 08:32:00,70.2,69.9,29.62,ENE,67,1.0,7.0,99,0.07,,,0.92,VWS V14.01,2013-06-07 12:32:00,
2013-06-07 08:37:00,70.3,70.0,29.62,East,86,2.0,2.0,99,0.02,,,0.93,VWS V14.01,2013-06-07 12:37:00,
2013-06-07 08:42:00,70.5,70.2,29.62,ESE,123,0.0,3.0,99,0.02,,,0.93,VWS V14.01,2013-06-07 12:42:00,
2013-06-07 08:47:00,70.6,70.3,29.62,East,80,1.0,3.0,99,0.02,,,0.93,VWS V14.01,2013-06-07 12:47:00,
2013-06-07 08:52:00,70.6,70.3,29.62,East,90,0.0,3.0,99,0.03,,,0.94,VWS V14.01,2013-06-07 12:52:00,
2013-06-07 08:57:00,70.8,70.5,29.61,East,90,0.0,3.0,99,0.04,,,0.95,VWS V14.01,2013-06-07 12:57:00,
2013-06-07 09:02:00,70.9,70.6,29.61,ESE,103,2.0,5.0,99,0.04,,,0.95,VWS V14.01,2013-06-07 13:02:00,
2013-06-07 09:07:00,71.2,70.9,29.61,ENE,67,4.0,4.0,99,0.03,,,0.95,VWS V14.01,2013-06-07 13:07:00,
2013-06-07 09:12:00,71.4,71.1,29.61,ENE,67,1.0,4.0,99,0.03,,,0.95,VWS V14.01,2013-06-07 13:12:00,
2013-06-07 09:17:00,71.6,71.3,29.61,ENE,67,2.0,4.0,99,0.04,,,0.96,VWS V14.01,2013-06-07 13:17:00,
2013-06-07 09:22:00,71.6,71.3,29.60,ENE,65,1.0,6.0,99,0.05,,,0.97,VWS V14.01,2013-06-07 13:22:00,
2013-06-07 09:27:00,71.7,71.4,29.60,ENE,65,0.0,6.0,99,0.05,,,0.97,VWS V14.01,2013-06-07 13:27:00,
2013-06-07 09:32:00,72.0,71.7,29.60,East,94,3.0,6.0,99,0.05,,,0.97,VWS V14.01,2013-06-07 13:32:00,
2013-06-07 09:37:00,72.0,71.7,29.60,ENE,72,0.0,3.0,99,0.05,,,0.97,VWS V14.01,2013-06-07 13:37:00,
2013-06-07 09:42:00,72.1,71.8,29.59,ENE,66,2.0,3.0,99,0.05,,,0.97,VWS V14.01,2013-06-07 13:42:00,
2013-06-07 09:47:00,72.2,71.9,29.59,ENE,73,1.0,5.0,99,0.05,,,0.97,VWS V14.01,2013-06-07 13:47:00,
2013-06-07 09:52:00,72.3,72.0,29.59,ENE,76,0.0,5.0,99,0.06,,,0.98,VWS V14.01,2013-06-07 13:52:00,
2013-06-07 09:57:00,72.4,72.1,29.58,ESE,107,4.0,7.0,99,0.06,,,0.98,VWS V14.01,2013-06-07 13:57:00,
2013-06-07 10:02:00,72.5,72.2,29.58,NE,49,2.0,7.0,99,0.06,,,0.98,VWS V14.01,2013-06-07 14:02:00,
2013-06-07 10:07:00,72.7,72.4,29.58,NE,54,3.0,8.0,99,0.03,,,0.98,VWS V14.01,2013-06-07 14:07:00,
2013-06-07 10:12:00,73.0,72.7,29.58,SSW,194,2.0,8.0,99,0.03,,,0.98,VWS V14.01,2013-06-07 14:12:00,
2013-06-07 10:17:00,73.2,72.9,29.58,SE,138,1.0,8.0,99,0.03,,,0.98,VWS V14.01,2013-06-07 14:17:00,
2013-06-07 10:22:00,73.2,72.6,29.58,SE,127,3.0,8.0,98,0.03,,,0.98,VWS V14.01,2013-06-07 14:22:00,
2013-06-07 10:27:00,73.6,73.0,29.57,East,83,3.0,8.0,98,0.03,,,0.98,VWS V14.01,2013-06-07 14:27:00,
2013-06-07 10:32:00,74.0,73.4,29.57,SE,138,2.0,8.0,98,0.03,,,0.98,VWS V14.01,2013-06-07 14:32:00,
2013-06-07 10:37:00,74.4,73.8,29.57,ESE,111,2.0,6.0,98,0.01,,,0.98,VWS V14.01,2013-06-07 14:37:00,
2013-06-07 10:42:00,74.6,74.0,29.56,East,83,1.0,10.0,98,0.01,,,0.98,VWS V14.01,2013-06-07 14:42:00,
2013-06-07 10:47:00,74.9,74.0,29.56,SSE,152,1.0,10.0,97,0.01,,,0.98,VWS V14.01,2013-06-07 14:47:00,
2013-06-07 10:52:00,75.2,74.0,29.56,East,87,5.0,10.0,96,0.01,,,0.98,VWS V14.01,2013-06-07 14:52:00,
2013-06-07 10:57:00,75.5,74.3,29.56,SSE,153,2.0,10.0,96,0.01,,,0.98,VWS V14.01,2013-06-07 14:57:00,
2013-06-07 11:02:00,75.7,73.8,29.55,SSE,166,2.0,10.0,94,0.01,,,0.98,VWS V14.01,2013-06-07 15:02:00,
2013-06-07 11:07:00,76.4,74.9,29.55,SSE,154,3.0,3.0,95,0.00,,,0.98,VWS V14.01,2013-06-07 15:07:00,
2013-06-07 11:12:00,77.0,74.8,29.55,SE,125,1.0,5.0,93,0.00,,,0.98,VWS V14.01,2013-06-07 15:12:00,
2013-06-07 11:17:00,76.8,74.3,29.55,East,89,3.0,5.0,92,0.00,,,0.98,VWS V14.01,2013-06-07 15:17:00,
2013-06-07 11:22:00,76.4,73.9,29.55,SE,128,2.0,6.0,92,0.00,,,0.98,VWS V14.01,2013-06-07 15:22:00,
2013-06-07 11:27:00,76.2,74.0,29.55,ESE,106,3.0,8.0,93,0.00,,,0.98,VWS V14.01,2013-06-07 15:27:00,
2013-06-07 11:32:00,76.1,74.2,29.54,SE,130,1.0,8.0,94,0.00,,,0.98,VWS V14.01,2013-06-07 15:32:00,
2013-06-07 11:37:00,76.1,74.2,29.54,ESE,110,2.0,5.0,94,0.00,,,0.98,VWS V14.01,2013-06-07 15:37:00,
2013-06-07 11:42:00,76.0,74.5,29.54,SE,139,2.0,5.0,95,0.00,,,0.98,VWS V14.01,2013-06-07 15:42:00,
2013-06-07 11:47:00,75.8,73.9,29.54,ENE,62,1.0,5.0,94,0.01,,,0.99,VWS V14.01,2013-06-07 15:47:00,
2013-06-07 11:52:00,75.9,74.1,29.53,SE,139,0.0,5.0,94,0.01,,,0.99,VWS V14.01,2013-06-07 15:52:00,
2013-06-07 11:57:00,75.9,74.1,29.53,SE,126,2.0,5.0,94,0.01,,,0.99,VWS V14.01,2013-06-07 15:57:00,
2013-06-07 12:02:00,76.0,74.2,29.53,SE,133,0.0,5.0,94,0.01,,,0.99,VWS V14.01,2013-06-07 16:02:00,
2013-06-07 12:07:00,76.1,74.2,29.53,SSE,150,1.0,3.0,94,0.01,,,0.99,VWS V14.01,2013-06-07 16:07:00,
2013-06-07 12:12:00,75.9,73.7,29.52,ENE,69,1.0,3.0,93,0.01,,,0.99,VWS V14.01,2013-06-07 16:12:00,
2013-06-07 12:17:00,75.9,73.7,29.52,SSE,153,1.0,3.0,93,0.01,,,0.99,VWS V14.01,2013-06-07 16:17:00,
2013-06-07 12:22:00,75.9,74.1,29.52,East,86,1.0,3.0,94,0.01,,,0.99,VWS V14.01,2013-06-07 16:22:00,
2013-06-07 12:27:00,75.8,73.9,29.52,ENE,73,2.0,5.0,94,0.01,,,0.99,VWS V14.01,2013-06-07 16:27:00,
2013-06-07 12:32:00,75.8,73.9,29.51,WNW,288,2.0,5.0,94,0.02,,,1.00,VWS V14.01,2013-06-07 16:32:00,
2013-06-07 12:37:00,75.7,73.8,29.51,NW,311,0.0,2.0,94,0.04,,,1.02,VWS V14.01,2013-06-07 16:37:00,
2013-06-07 12:42:00,75.7,74.2,29.50,West,279,1.0,2.0,95,0.05,,,1.03,VWS V14.01,2013-06-07 16:42:00,
2013-06-07 12:47:00,75.6,74.1,29.50,NW,311,1.0,2.0,95,0.06,,,1.04,VWS V14.01,2013-06-07 16:47:00,
2013-06-07 12:52:00,75.5,74.3,29.50,WNW,298,2.0,3.0,96,0.10,,,1.08,VWS V14.01,2013-06-07 16:52:00,
2013-06-07 12:57:00,75.1,73.6,29.49,WNW,300,5.0,7.0,95,0.29,,,1.27,VWS V14.01,2013-06-07 16:57:00,
2013-06-07 13:02:00,74.3,73.1,29.50,NW,315,1.0,7.0,96,0.42,,,1.40,VWS V14.01,2013-06-07 17:02:00,
2013-06-07 13:07:00,73.5,72.3,29.49,NW,307,4.0,7.0,96,0.81,,,1.80,VWS V14.01,2013-06-07 17:07:00,
2013-06-07 13:12:00,72.9,71.7,29.49,NNW,338,2.0,7.0,96,0.98,,,1.97,VWS V14.01,2013-06-07 17:12:00,
2013-06-07 13:17:00,72.6,71.7,29.49,NW,304,1.0,7.0,97,1.09,,,2.08,VWS V14.01,2013-06-07 17:17:00,
2013-06-07 13:22:00,72.2,71.0,29.49,NW,314,2.0,7.0,96,1.22,,,2.21,VWS V14.01,2013-06-07 17:22:00,
2013-06-07 13:27:00,71.9,71.0,29.49,NW,310,2.0,7.0,97,1.39,,,2.38,VWS V14.01,2013-06-07 17:27:00,
2013-06-07 13:32:00,71.7,70.8,29.49,NNW,328,4.0,9.0,97,1.55,,,2.54,VWS V14.01,2013-06-07 17:32:00,
2013-06-07 13:37:00,71.4,70.5,29.48,NW,311,4.0,10.0,97,1.63,,,2.64,VWS V14.01,2013-06-07 17:37:00,
2013-06-07 13:42:00,71.2,70.3,29.49,WNW,290,4.0,11.0,97,1.68,,,2.69,VWS V14.01,2013-06-07 17:42:00,
2013-06-07 13:47:00,71.1,70.5,29.49,NW,304,7.0,11.0,98,1.72,,,2.73,VWS V14.01,2013-06-07 17:47:00,
2013-06-07 13:52:00,70.9,70.3,29.49,NW,307,4.0,11.0,98,1.84,,,2.85,VWS V14.01,2013-06-07 17:52:00,
2013-06-07 13:57:00,70.6,70.0,29.48,NW,310,5.0,11.0,98,1.94,,,2.95,VWS V14.01,2013-06-07 17:57:00,
2013-06-07 14:02:00,70.5,69.9,29.48,WNW,288,4.0,15.0,98,1.97,,,2.98,VWS V14.01,2013-06-07 18:02:00,
2013-06-07 14:07:00,70.3,69.7,29.49,NW,307,6.0,9.0,98,1.55,,,2.99,VWS V14.01,2013-06-07 18:07:00,
2013-06-07 14:13:00,70.2,69.6,29.49,WNW,292,3.0,9.0,98,1.57,,,3.01,VWS V14.01,2013-06-07 18:13:00,
2013-06-07 14:18:00,70.2,69.6,29.49,WNW,294,6.0,10.0,98,1.60,,,3.04,VWS V14.01,2013-06-07 18:18:00,
2013-06-07 14:23:00,70.0,69.4,29.48,NW,314,6.0,11.0,98,1.69,,,3.13,VWS V14.01,2013-06-07 18:23:00,
2013-06-07 14:28:00,70.0,69.4,29.49,NW,304,6.0,13.0,98,1.82,,,3.26,VWS V14.01,2013-06-07 18:28:00,
2013-06-07 14:33:00,69.9,69.3,29.50,NW,314,7.0,13.0,98,1.93,,,3.37,VWS V14.01,2013-06-07 18:33:00,
2013-06-07 14:38:00,69.8,69.2,29.50,NW,309,5.0,14.0,98,0.86,,,3.42,VWS V14.01,2013-06-07 18:38:00,
2013-06-07 14:43:00,69.8,69.2,29.50,WNW,284,5.0,14.0,98,0.90,,,3.46,VWS V14.01,2013-06-07 18:43:00,
2013-06-07 14:48:00,69.8,69.2,29.52,WSW,258,2.0,14.0,98,0.93,,,3.49,VWS V14.01,2013-06-07 18:48:00,
2013-06-07 14:53:00,69.8,69.2,29.54,WNW,298,3.0,14.0,98,0.95,,,3.51,VWS V14.01,2013-06-07 18:53:00,
2013-06-07 14:58:00,69.8,69.2,29.52,NW,311,5.0,14.0,98,0.99,,,3.55,VWS V14.01,2013-06-07 18:58:00,
2013-06-07 15:03:00,69.7,69.1,29.49,NNE,22,6.0,14.0,98,1.03,,,3.59,VWS V14.01,2013-06-07 19:03:00,
2013-06-07 15:08:00,69.7,69.1,29.46,NW,317,7.0,11.0,98,0.64,,,3.62,VWS V14.01,2013-06-07 19:08:00,
2013-06-07 15:13:00,69.7,69.1,29.45,NW,319,6.0,15.0,98,0.66,,,3.64,VWS V14.01,2013-06-07 19:13:00,
2013-06-07 15:18:00,69.7,69.1,29.42,NNW,336,7.0,15.0,98,0.67,,,3.65,VWS V14.01,2013-06-07 19:18:00,
2013-06-07 15:23:00,69.6,69.0,29.42,NW,307,5.0,15.0,98,0.69,,,3.67,VWS V14.01,2013-06-07 19:23:00,
2013-06-07 15:28:00,69.6,69.0,29.45,West,267,7.0,19.0,98,0.70,,,3.68,VWS V14.01,2013-06-07 19:28:00,
2013-06-07 15:33:00,69.6,69.0,29.48,WSW,250,3.0,3.0,98,0.32,,,3.69,VWS V14.01,2013-06-07 19:33:00,
2013-06-07 15:38:00,69.6,69.0,29.50,WSW,256,3.0,7.0,98,0.33,,,3.70,VWS V14.01,2013-06-07 19:38:00,
2013-06-07 15:43:00,69.7,69.1,29.52,WSW,245,3.0,7.0,98,0.35,,,3.72,VWS V14.01,2013-06-07 19:43:00,
2013-06-07 15:49:00,69.6,69.0,29.53,WSW,244,2.0,7.0,98,0.36,,,3.73,VWS V14.01,2013-06-07 19:49:00,
2013-06-07 15:54:00,69.6,69.0,29.53,NW,306,6.0,7.0,98,0.37,,,3.74,VWS V14.01,2013-06-07 19:54:00,
2013-06-07 15:59:00,69.6,69.0,29.53,WNW,284,6.0,8.0,98,0.37,,,3.74,VWS V14.01,2013-06-07 19:59:00,
2013-06-07 16:04:00,69.5,68.9,29.54,WNW,296,4.0,7.0,98,0.15,,,3.74,VWS V14.01,2013-06-07 20:04:00,
2013-06-07 16:09:00,69.6,69.0,29.55,WNW,299,5.0,7.0,98,0.15,,,3.74,VWS V14.01,2013-06-07 20:09:00,
2013-06-07 16:14:00,69.6,69.0,29.56,NNW,327,5.0,7.0,98,0.16,,,3.75,VWS V14.01,2013-06-07 20:14:00,
2013-06-07 16:19:00,69.6,69.0,29.56,WNW,284,2.0,7.0,98,0.16,,,3.75,VWS V14.01,2013-06-07 20:19:00,
2013-06-07 16:24:00,69.7,69.1,29.57,West,279,3.0,7.0,98,0.16,,,3.75,VWS V14.01,2013-06-07 20:24:00,
2013-06-07 16:29:00,69.7,69.1,29.58,West,267,2.0,7.0,98,0.16,,,3.75,VWS V14.01,2013-06-07 20:29:00,
2013-06-07 16:34:00,69.7,69.1,29.58,West,271,2.0,4.0,98,0.06,,,3.75,VWS V14.01,2013-06-07 20:34:00,
2013-06-07 16:39:00,69.7,69.1,29.58,WNW,296,4.0,9.0,98,0.06,,,3.75,VWS V14.01,2013-06-07 20:39:00,
2013-06-07 16:44:00,69.8,69.2,29.59,WNW,300,4.0,9.0,98,0.06,,,3.75,VWS V14.01,2013-06-07 20:44:00,
2013-06-07 16:49:00,69.9,69.3,29.59,WNW,302,4.0,9.0,98,0.06,,,3.75,VWS V14.01,2013-06-07 20:49:00,
2013-06-07 16:55:00,69.9,69.3,29.59,NW,311,3.0,9.0,98,0.06,,,3.75,VWS V14.01,2013-06-07 20:55:00,
2013-06-07 17:00:00,70.0,69.4,29.59,WNW,284,4.0,9.0,98,0.06,,,3.75,VWS V14.01,2013-06-07 21:00:00,
2013-06-07 17:05:00,70.1,69.5,29.60,WNW,282,3.0,7.0,98,0.01,,,3.75,VWS V14.01,2013-06-07 21:05:00,
2013-06-07 17:10:00,70.3,69.7,29.60,WSW,252,5.0,8.0,98,0.01,,,3.75,VWS V14.01,2013-06-07 21:10:00,
2013-06-07 17:15:00,70.7,69.8,29.60,West,265,2.0,8.0,97,0.01,,,3.75,VWS V14.01,2013-06-07 21:15:00,
2013-06-07 17:20:00,71.1,69.9,29.61,NW,319,2.0,8.0,96,0.01,,,3.75,VWS V14.01,2013-06-07 21:20:00,
2013-06-07 17:25:00,71.2,70.0,29.62,WNW,302,4.0,8.0,96,0.01,,,3.75,VWS V14.01,2013-06-07 21:25:00,
2013-06-07 17:30:00,71.1,69.9,29.62,WNW,301,4.0,10.0,96,0.01,,,3.75,VWS V14.01,2013-06-07 21:30:00,
2013-06-07 17:35:00,71.1,69.6,29.62,NW,304,3.0,5.0,95,0.00,,,3.75,VWS V14.01,2013-06-07 21:35:00,
2013-06-07 17:40:00,71.1,69.6,29.63,WNW,296,2.0,7.0,95,0.00,,,3.75,VWS V14.01,2013-06-07 21:40:00,
2013-06-07 17:45:00,71.1,69.6,29.63,SW,232,3.0,7.0,95,0.00,,,3.75,VWS V14.01,2013-06-07 21:45:00,
2013-06-07 17:50:00,71.1,69.6,29.63,WNW,295,1.0,7.0,95,0.00,,,3.75,VWS V14.01,2013-06-07 21:50:00,
2013-06-07 17:55:00,71.2,69.7,29.64,NW,307,1.0,7.0,95,0.00,,,3.75,VWS V14.01,2013-06-07 21:55:00,
2013-06-07 18:01:00,71.4,69.9,29.64,NW,307,4.0,7.0,95,0.00,,,3.75,VWS V14.01,2013-06-07 22:01:00,
2013-06-07 18:06:00,71.5,70.0,29.64,WSW,252,2.0,3.0,95,0.00,,,3.75,VWS V14.01,2013-06-07 22:06:00,
2013-06-07 18:11:00,71.7,70.2,29.65,West,280,1.0,3.0,95,0.00,,,3.75,VWS V14.01,2013-06-07 22:11:00,
2013-06-07 18:16:00,71.7,70.2,29.66,WSW,237,1.0,4.0,95,0.00,,,3.75,VWS V14.01,2013-06-07 22:16:00,
2013-06-07 18:21:00,71.9,70.1,29.66,WSW,248,1.0,4.0,94,0.00,,,3.75,VWS V14.01,2013-06-07 22:21:00,
2013-06-07 18:26:00,72.0,70.2,29.66,WSW,238,1.0,4.0,94,0.00,,,3.75,VWS V14.01,2013-06-07 22:26:00,
2013-06-07 18:31:00,72.1,70.3,29.66,WNW,287,2.0,4.0,94,0.00,,,3.75,VWS V14.01,2013-06-07 22:31:00,
2013-06-07 18:36:00,72.1,70.3,29.67,SW,222,1.0,2.0,94,0.00,,,3.75,VWS V14.01,2013-06-07 22:36:00,
2013-06-07 18:42:00,72.1,70.3,29.67,WSW,248,3.0,4.0,94,0.00,,,3.75,VWS V14.01,2013-06-07 22:42:00,
2013-06-07 18:47:00,72.1,70.3,29.68,NW,315,1.0,4.0,94,0.00,,,3.75,VWS V14.01,2013-06-07 22:47:00,
2013-06-07 18:52:00,72.1,70.3,29.68,WNW,289,1.0,4.0,94,0.00,,,3.75,VWS V14.01,2013-06-07 22:52:00,
2013-06-07 18:57:00,72.2,70.4,29.68,NW,311,1.0,4.0,94,0.00,,,3.75,VWS V14.01,2013-06-07 22:57:00,
2013-06-07 19:02:00,72.3,70.5,29.69,NNW,330,3.0,4.0,94,0.00,,,3.75,VWS V14.01,2013-06-07 23:02:00,
2013-06-07 19:07:00,72.3,70.5,29.69,NW,304,3.0,3.0,94,0.00,,,3.75,VWS V14.01,2013-06-07 23:07:00,
2013-06-07 19:12:00,72.3,70.2,29.69,West,272,1.0,3.0,93,0.00,,,3.75,VWS V14.01,2013-06-07 23:12:00,
2013-06-07 19:17:00,72.2,70.1,29.69,WSW,246,1.0,3.0,93,0.00,,,3.75,VWS V14.01,2013-06-07 23:17:00,
2013-06-07 19:22:00,72.2,70.1,29.70,WSW,241,0.0,3.0,93,0.00,,,3.75,VWS V14.01,2013-06-07 23:22:00,
2013-06-07 19:28:00,72.1,70.0,29.70,West,268,0.0,3.0,93,0.00,,,3.75,VWS V14.01,2013-06-07 23:28:00,
2013-06-07 19:33:00,72.0,70.2,29.71,SSW,194,0.0,3.0,94,0.00,,,3.75,VWS V14.01,2013-06-07 23:33:00,
2013-06-07 19:38:00,71.9,70.1,29.71,West,267,0.0,1.0,94,0.00,,,3.75,VWS V14.01,2013-06-07 23:38:00,
2013-06-07 19:43:00,71.9,70.1,29.72,WSW,237,1.0,2.0,94,0.00,,,3.75,VWS V14.01,2013-06-07 23:43:00,
2013-06-07 19:48:00,71.9,70.4,29.72,WSW,252,0.0,2.0,95,0.00,,,3.75,VWS V14.01,2013-06-07 23:48:00,
2013-06-07 19:53:00,71.8,70.3,29.72,SW,216,0.0,2.0,95,0.00,,,3.75,VWS V14.01,2013-06-07 23:53:00,
2013-06-07 19:58:00,71.8,70.3,29.72,West,260,0.0,2.0,95,0.00,,,3.75,VWS V14.01,2013-06-07 23:58:00,
2013-06-07 20:03:00,71.8,70.3,29.72,SW,220,0.0,1.0,95,0.00,,,3.75,VWS V14.01,2013-06-08 00:03:00,
2013-06-07 20:08:00,71.8,70.3,29.73,SW,230,0.0,1.0,95,0.00,,,3.75,VWS V14.01,2013-06-08 00:08:00,
2013-06-07 20:14:00,71.8,70.3,29.73,SW,221,0.0,1.0,95,0.00,,,3.75,VWS V14.01,2013-06-08 00:14:00,
2013-06-07 20:19:00,71.7,70.2,29.73,WSW,242,0.0,1.0,95,0.00,,,3.75,VWS V14.01,2013-06-08 00:19:00,
2013-06-07 20:24:00,71.7,70.5,29.73,WSW,246,1.0,1.0,96,0.00,,,3.75,VWS V14.01,2013-06-08 00:24:00,
2013-06-07 20:29:00,71.6,70.4,29.73,SW,236,0.0,2.0,96,0.00,,,3.75,VWS V14.01,2013-06-08 00:29:00,
2013-06-07 20:34:00,71.6,70.4,29.73,SW,234,0.0,1.0,96,0.00,,,3.75,VWS V14.01,2013-06-08 00:34:00,
2013-06-07 20:39:00,71.6,70.1,29.73,SSW,209,0.0,2.0,95,0.00,,,3.75,VWS V14.01,2013-06-08 00:39:00,
2013-06-07 20:44:00,71.5,70.0,29.73,SW,227,1.0,2.0,95,0.00,,,3.75,VWS V14.01,2013-06-08 00:44:00,
2013-06-07 20:49:00,71.5,70.0,29.74,SW,227,0.0,2.0,95,0.00,,,3.75,VWS V14.01,2013-06-08 00:49:00,
2013-06-07 20:54:00,71.4,70.2,29.74,WSW,242,0.0,2.0,96,0.00,,,3.75,VWS V14.01,2013-06-08 00:54:00,
2013-06-07 20:59:00,71.4,70.2,29.74,SW,234,1.0,2.0,96,0.00,,,3.75,VWS V14.01,2013-06-08 00:59:00,
2013-06-07 21:04:00,71.5,70.3,29.75,WSW,238,0.0,0.0,96,0.00,,,3.75,VWS V14.01,2013-06-08 01:04:00,
2013-06-07 21:09:00,71.5,70.3,29.75,SW,219,0.0,1.0,96,0.00,,,3.75,VWS V14.01,2013-06-08 01:09:00,
2013-06-07 21:14:00,71.5,70.3,29.75,SW,219,0.0,1.0,96,0.00,,,3.75,VWS V14.01,2013-06-08 01:14:00,
2013-06-07 21:19:00,71.4,70.2,29.76,SW,219,0.0,1.0,96,0.00,,,3.75,VWS V14.01,2013-06-08 01:19:00,
2013-06-07 21:25:00,71.5,70.3,29.76,SW,219,0.0,1.0,96,0.00,,,3.75,VWS V14.01,2013-06-08 01:25:00,
2013-06-07 21:30:00,71.4,70.2,29.76,SW,218,0.0,1.0,96,0.00,,,3.75,VWS V14.01,2013-06-08 01:30:00,
2013-06-07 21:35:00,71.4,70.2,29.77,SW,218,0.0,1.0,96,0.00,,,3.75,VWS V14.01,2013-06-08 01:35:00,
2013-06-07 21:40:00,71.4,70.2,29.77,SW,218,1.0,1.0,96,0.00,,,3.75,VWS V14.01,2013-06-08 01:40:00,
2013-06-07 21:45:00,71.4,70.2,29.77,WSW,242,0.0,2.0,96,0.00,,,3.75,VWS V14.01,2013-06-08 01:45:00,
2013-06-07 21:50:00,71.3,70.1,29.78,WSW,241,0.0,2.0,96,0.00,,,3.75,VWS V14.01,2013-06-08 01:50:00,
2013-06-07 21:55:00,71.3,70.1,29.78,WSW,252,1.0,2.0,96,0.00,,,3.75,VWS V14.01,2013-06-08 01:55:00,
2013-06-07 22:00:00,71.2,70.3,29.78,West,267,0.0,2.0,97,0.00,,,3.75,VWS V14.01,2013-06-08 02:00:00,
2013-06-07 22:05:00,71.2,70.3,29.78,WSW,244,1.0,1.0,97,0.03,,,3.78,VWS V14.01,2013-06-08 02:05:00,
2013-06-07 22:12:00,71.1,70.2,29.79,SW,233,0.0,2.0,97,0.04,,,3.79,VWS V14.01,2013-06-08 02:12:00,
2013-06-07 22:17:00,71.1,70.2,29.79,SW,232,0.0,2.0,97,0.04,,,3.79,VWS V14.01,2013-06-08 02:17:00,
2013-06-07 22:22:00,71.1,70.2,29.79,SW,218,0.0,2.0,97,0.05,,,3.80,VWS V14.01,2013-06-08 02:22:00,
2013-06-07 22:27:00,71.0,70.1,29.79,WSW,242,0.0,2.0,97,0.05,,,3.80,VWS V14.01,2013-06-08 02:27:00,
2013-06-07 22:32:00,71.0,70.4,29.79,WSW,242,0.0,2.0,98,0.05,,,3.80,VWS V14.01,2013-06-08 02:32:00,
2013-06-07 22:37:00,70.9,70.3,29.79,WSW,239,1.0,1.0,98,0.05,,,3.80,VWS V14.01,2013-06-08 02:37:00,
2013-06-07 22:42:00,70.9,70.3,29.79,WSW,244,1.0,2.0,98,0.05,,,3.80,VWS V14.01,2013-06-08 02:42:00,
2013-06-07 22:47:00,70.8,70.2,29.80,SW,227,0.0,2.0,98,0.05,,,3.80,VWS V14.01,2013-06-08 02:47:00,
2013-06-07 22:52:00,70.7,70.1,29.80,WSW,238,0.0,2.0,98,0.05,,,3.80,VWS V14.01,2013-06-08 02:52:00,
2013-06-07 22:57:00,70.7,70.1,29.80,WSW,242,0.0,2.0,98,0.05,,,3.80,VWS V14.01,2013-06-08 02:57:00,
2013-06-07 23:03:00,70.6,70.0,29.80,SW,234,1.0,2.0,98,0.05,,,3.80,VWS V14.01,2013-06-08 03:03:00,
2013-06-07 23:08:00,70.5,69.9,29.80,SW,225,0.0,2.0,98,0.02,,,3.80,VWS V14.01,2013-06-08 03:08:00,
2013-06-07 23:13:00,70.4,69.8,29.81,WSW,238,1.0,2.0,98,0.02,,,3.80,VWS V14.01,2013-06-08 03:13:00,
2013-06-07 23:18:00,70.4,69.8,29.81,West,274,1.0,2.0,98,0.02,,,3.80,VWS V14.01,2013-06-08 03:18:00,
2013-06-07 23:23:00,70.2,69.6,29.80,SW,217,0.0,2.0,98,0.02,,,3.80,VWS V14.01,2013-06-08 03:23:00,
2013-06-07 23:28:00,70.2,69.6,29.80,WSW,237,1.0,2.0,98,0.02,,,3.80,VWS V14.01,2013-06-08 03:28:00,
2013-06-07 23:33:00,70.2,69.6,29.80,SW,224,0.0,2.0,98,0.02,,,3.80,VWS V14.01,2013-06-08 03:33:00,
2013-06-07 23:38:00,70.1,69.5,29.81,WSW,248,0.0,1.0,98,0.00,,,3.80,VWS V14.01,2013-06-08 03:38:00,
2013-06-07 23:43:00,70.1,69.5,29.80,SW,223,0.0,1.0,98,0.00,,,3.80,VWS V14.01,2013-06-08 03:43:00,
2013-06-07 23:48:00,70.1,69.5,29.80,SW,224,2.0,2.0,98,0.01,,,3.81,VWS V14.01,2013-06-08 03:48:00,
2013-06-07 23:53:00,70.0,69.4,29.80,WSW,238,0.0,2.0,98,0.01,,,3.81,VWS V14.01,2013-06-08 03:53:00,
2013-06-07 23:58:00,70.0,69.4,29.80,SW,221,0.0,2.0,98,0.01,,,3.81,VWS V14.01,2013-06-08 03:58:00,